Gainesville, FL

2:55 AM EDT on August 23, 2017 (GMT -0400)
Gainesville Regional

Weather History for KGNV - October, 2012

Change the Weather History Date:

Saturday, October 13, 2012

  Actual Average Record
Temperature  
Mean Temperature 73 °F 72 °F  
Max Temperature 85 °F 82 °F 92 °F (1911)
Min Temperature 61 °F 62 °F 47 °F (1988)
Degree Days  
Heating Degree Days 0 1  
Month to date heating degree days 0 1  
Since 1 July heating degree days 0 1  
Cooling Degree Days 8 7  
Month to date cooling degree days 147 115  
Year to date cooling degree days 2844 2455  
Growing Degree Days 22 (Base 50)    
Moisture  
Dew Point 62 °F    
Average Humidity 71    
Maximum Humidity 97    
Minimum Humidity 44    
Precipitation  
Precipitation T in 0.10 in 1.35 in (1942)
Month to date precipitation 0.86 1.50  
Year to date precipitation 49.23 41.49  
Snow  
Snow 0.00 in 0.00 in 0.00 in ()
Month to date snowfall 0.0 0.0  
Since 1 July snowfall 0.0 0.0  
Since 1 September snowfall 0.0 0.0  
Snow Depth 0.00 in    
Sea Level Pressure  
Sea Level Pressure 30.19 in    
Wind  
Wind Speed 7 mph (NE)    
Max Wind Speed 17 mph    
Max Gust Speed 24 mph    
Visibility 10 miles    
Events      
T = Trace of Precipitation, MM = Missing Value Source: NWS Daily Summary

Daily Weather History Graph

Daily Weather History Graph

Search for Another Location

Airport or City:

Trip Planner

Search our weather history database for the weather conditions in past years. The results will help you decide how hot, cold, wet, or windy it might be!

Date:

Astronomy

Oct. 13, 2012 Rise Set
Actual Time 7:29 AM EDT 7:00 PM EDT
Civil Twilight 7:05 AM EDT 7:24 PM EDT
Nautical Twilight 6:38 AM EDT 7:51 PM EDT
Astronomical Twilight 6:10 AM EDT 8:19 PM EDT
Moon 5:25 AM EDT (10/13) 5:38 PM EDT (10/13)
Length of Visible Light 12h 18m
Length of Day
11h 30m
Waning Crescent, 5% of the Moon is Illuminated
Oct 13
Waning Crescent
Oct 15
New
Oct 21
First Quarter
Oct 29
Full
Nov 6
Last Quarter

Hourly Weather History & Observations

Time (EDT) Temp. Heat Index Dew Point Humidity Pressure Visibility Wind Dir Wind Speed Gust Speed Precip Events Conditions
12:53 AM 64.9 °F - 62.1 °F 90% 30.19 in 10.0 mi Calm Calm - N/A   Clear
1:53 AM 63.0 °F - 61.0 °F 93% 30.19 in 10.0 mi Calm Calm - N/A   Clear
2:53 AM 62.1 °F - 60.1 °F 93% 30.17 in 10.0 mi Calm Calm - N/A   Clear
3:53 AM 61.0 °F - 59.0 °F 93% 30.17 in 10.0 mi Calm Calm - N/A   Clear
4:53 AM 61.0 °F - 59.0 °F 93% 30.17 in 10.0 mi Calm Calm - N/A   Clear
5:53 AM 62.1 °F - 59.0 °F 90% 30.18 in 10.0 mi Calm Calm - N/A   Clear
6:53 AM 64.9 °F - 61.0 °F 87% 30.20 in 10.0 mi NE 3.5 mph - N/A   Clear
7:53 AM 66.9 °F - 63.0 °F 87% 30.22 in 10.0 mi NE 3.5 mph - N/A   Clear
8:53 AM 71.1 °F - 64.0 °F 78% 30.22 in 10.0 mi NNE 8.1 mph - N/A   Clear
9:53 AM 75.9 °F - 64.9 °F 69% 30.24 in 10.0 mi ENE 9.2 mph - N/A   Clear
10:53 AM 79.0 °F - 64.9 °F 62% 30.25 in 10.0 mi ENE 12.7 mph - N/A   Clear
11:53 AM 81.0 °F 82.5 °F 64.0 °F 56% 30.24 in 10.0 mi ENE 16.1 mph 24.2 mph N/A   Overcast
12:53 PM 82.0 °F 83.8 °F 64.9 °F 56% 30.22 in 10.0 mi East 11.5 mph - N/A   Mostly Cloudy
2:53 PM 84.9 °F 85.0 °F 61.0 °F 44% 30.17 in 10.0 mi East 11.5 mph - N/A   Scattered Clouds
3:53 PM 84.9 °F 85.0 °F 61.0 °F 44% 30.16 in 10.0 mi ENE 12.7 mph 21.9 mph N/A   Partly Cloudy
4:53 PM 82.9 °F 83.3 °F 61.0 °F 47% 30.15 in 10.0 mi ENE 15.0 mph - N/A   Scattered Clouds
5:53 PM 81.0 °F 81.7 °F 61.0 °F 50% 30.16 in 10.0 mi ENE 11.5 mph 18.4 mph N/A   Clear
6:53 PM 75.9 °F - 63.0 °F 64% 30.16 in 10.0 mi ENE 5.8 mph - N/A   Clear
8:53 PM 72.0 °F - 66.0 °F 81% 30.19 in 10.0 mi NE 4.6 mph - 0.00 in   Overcast
9:53 PM 71.1 °F - 66.0 °F 84% 30.19 in 10.0 mi NNE 3.5 mph - N/A   Scattered Clouds
10:53 PM 70.0 °F - 66.0 °F 87% 30.19 in 10.0 mi NNE 3.5 mph - N/A   Overcast